Weather History for Port Angeles, WA

Change the Weather History Date:

Friday, January 3, 2014

  Actual Average Record
Temperature  
Mean Temperature 40 °F -  
Max Temperature 48 °F 43 °F 55 °F (1962)
Min Temperature 32 °F 32 °F 13 °F (1950)
Degree Days  
Heating Degree Days 25    
Moisture  
Dew Point 31 °F    
Average Humidity 72    
Maximum Humidity 93    
Minimum Humidity 52    
Precipitation  
Precipitation 0.00 in - - ()
Sea Level Pressure  
Sea Level Pressure 30.21 in    
Wind  
Wind Speed 10 mph (West)    
Max Wind Speed 14 mph    
Max Gust Speed 22 mph    
Visibility 10 miles    
Events      
Averages and records for this station are not official NWS values.
T = Trace of Precipitation, MM = Missing Value Source: NWS Daily Summary

Daily Weather History Graph

Daily Weather History Graph

Search for Another Location

Airport:

Trip Planner

Search our weather history database for the weather conditions in past years. The results will help you decide how hot, cold, wet, or windy it might be!

Date:

Astronomy

Jan. 03, 2014 Rise Set
Actual Time 8:04 AM PST 4:33 PM PST
Civil Twilight 7:28 AM PST 5:09 PM PST
Nautical Twilight 6:48 AM PST 5:48 PM PST
Astronomical Twilight 6:10 AM PST 6:26 PM PST
Moon 9:19 AM PST (1/3) 8:05 PM PST (1/3)
Length of Visible Light 9h 41m
Length of Day
8h 29m
Waxing Crescent, 8% of the Moon is Illuminated
Jan 3
Waxing Crescent
Jan 7
First Quarter
Jan 15
Full
Jan 23
Last Quarter
Jan 30
New

Hourly Weather History & Observations

Time (PST) Temp. Windchill Dew Point Humidity Pressure Visibility Wind Dir Wind Speed Gust Speed Precip Events Conditions
12:53 AM 41.0 °F 34.3 °F 28.9 °F 62% 30.03 in 10.0 mi WNW 11.5 mph - N/A   Clear
1:53 AM 39.9 °F 32.5 °F 30.9 °F 70% 30.05 in 10.0 mi West 12.7 mph - N/A   Clear
2:53 AM 41.0 °F 35.2 °F 30.9 °F 67% 30.09 in 10.0 mi West 9.2 mph - N/A   Clear
3:53 AM 39.9 °F 32.5 °F 30.9 °F 70% 30.09 in 10.0 mi West 12.7 mph - N/A   Clear
4:53 AM 39.9 °F 32.5 °F 30.0 °F 68% 30.10 in 10.0 mi West 12.7 mph 21.9 mph N/A   Clear
5:53 AM 39.0 °F 31.4 °F 30.0 °F 70% 30.12 in 10.0 mi West 12.7 mph - N/A   Clear
6:53 AM 39.0 °F 31.4 °F 30.0 °F 70% 30.12 in 10.0 mi WSW 12.7 mph - N/A   Clear
7:53 AM 39.9 °F 32.1 °F 28.9 °F 65% 30.14 in 10.0 mi WSW 13.8 mph - N/A   Clear
8:53 AM 39.9 °F 33.4 °F 28.0 °F 63% 30.15 in 10.0 mi West 10.4 mph - N/A   Clear
9:53 AM 44.1 °F 38.1 °F 30.9 °F 60% 30.18 in 10.0 mi WNW 11.5 mph - N/A   Clear
10:53 AM 45.0 °F 39.7 °F 30.9 °F 58% 30.18 in 10.0 mi West 10.4 mph - N/A   Clear
11:53 AM 48.0 °F - 30.9 °F 52% 30.19 in 10.0 mi NW 11.5 mph - N/A   Clear
12:53 PM 48.0 °F - 34.0 °F 58% 30.19 in 10.0 mi NW 9.2 mph - N/A   Clear
1:53 PM 46.9 °F - 33.1 °F 59% 30.20 in 10.0 mi NW 10.4 mph - N/A   Clear
2:53 PM 45.0 °F 40.6 °F 36.0 °F 71% 30.23 in 10.0 mi NNW 8.1 mph - N/A   Clear
3:53 PM 43.0 °F - 36.0 °F 76% 30.26 in 10.0 mi Calm Calm - N/A   Clear
4:53 PM 36.0 °F - 34.0 °F 93% 30.28 in 10.0 mi Calm Calm - N/A   Clear
5:53 PM 34.0 °F 28.8 °F 30.9 °F 89% 30.30 in 10.0 mi SW 5.8 mph - N/A   Clear
6:53 PM 33.1 °F 26.1 °F 30.9 °F 92% 30.30 in 10.0 mi SW 8.1 mph - N/A   Clear
7:53 PM 32.0 °F 25.6 °F 28.9 °F 88% 30.33 in 10.0 mi SW 6.9 mph - N/A   Clear
8:53 PM 33.1 °F 27.7 °F 28.9 °F 85% 30.34 in 10.0 mi SW 5.8 mph - N/A   Clear
9:53 PM 33.1 °F - 28.0 °F 82% 30.35 in 10.0 mi North - - N/A   Clear
10:53 PM 33.1 °F - 28.0 °F 82% 30.37 in 10.0 mi North - - N/A   Clear
11:53 PM 32.0 °F - 27.0 °F 82% 30.39 in 10.0 mi North - - N/A   Clear